Вернуться в каталог

O3B FM17

АктивенСвязьMEO
NORAD 44114·PAYLOAD·🇱🇺 Luxembourg

Запущен Apr 4, 2019 с Guiana Space Centre

Loading…

Ближайшие Пролёты (ближайшие 24 часа)

TLE

СвежийSource: CelesTrak SupGP

Эпоха: Sep 13, 2026, 19:00 UTC

1 44114C 19020C   26256.79166667  .00000000  00000+0  00000+0 0  2569
2 44114   0.0483  14.6323 0002559 159.7444  43.3328  5.00115797    14

Отслеживайте O3B FM17 в реальном времени с AllMySat

Download on the App Store